Time,TemperatureF,DewpointF,PressureIn,WindDirection,WindDirectionDegrees,WindSpeedMPH,WindSpeedGustMPH,Humidity,HourlyPrecipIn,Conditions,Clouds,dailyrainin,SolarRadiationWatts/m^2,SoftwareType,DateUTC
2013-08-25 00:12:00,65.0,38.0,-100.00,SSW,195,0.0,9.0,37,0.00,,,0.00,0.000000,,2013-08-25 07:12:00,
2013-08-25 00:22:00,65.0,38.0,-100.00,SSW,195,0.0,9.0,37,0.00,,,0.00,0.000000,,2013-08-25 07:22:00,
2013-08-25 00:32:00,65.0,38.0,-100.00,SSW,195,0.0,9.0,37,0.00,,,0.00,0.000000,,2013-08-25 07:32:00,
2013-08-25 00:42:00,65.0,38.0,-100.00,SSW,195,0.0,9.0,37,0.00,,,0.00,0.000000,,2013-08-25 07:42:00,
2013-08-25 01:12:00,60.0,36.0,-100.00,South,191,0.0,5.0,40,0.00,,,0.00,0.000000,,2013-08-25 08:12:00,
2013-08-25 01:21:00,60.0,36.0,-100.00,South,191,0.0,5.0,40,0.00,,,0.00,0.000000,,2013-08-25 08:21:00,
2013-08-25 01:32:00,60.0,36.0,-100.00,South,191,0.0,5.0,40,0.00,,,0.00,0.000000,,2013-08-25 08:32:00,
2013-08-25 01:42:00,60.0,36.0,-100.00,South,191,0.0,5.0,40,0.00,,,0.00,0.000000,,2013-08-25 08:42:00,
2013-08-25 02:11:00,55.0,33.0,-100.00,South,177,0.0,2.0,44,0.00,,,0.00,0.000000,,2013-08-25 09:11:00,
2013-08-25 02:22:00,55.0,33.0,-100.00,South,177,0.0,2.0,44,0.00,,,0.00,0.000000,,2013-08-25 09:22:00,
2013-08-25 02:34:00,55.0,33.0,-100.00,South,177,0.0,2.0,44,0.00,,,0.00,0.000000,,2013-08-25 09:34:00,
2013-08-25 02:44:00,55.0,33.0,-100.00,South,177,0.0,2.0,44,0.00,,,0.00,0.000000,,2013-08-25 09:44:00,
2013-08-25 03:12:00,57.0,35.0,-100.00,SW,235,0.0,4.0,44,0.00,,,0.00,0.000000,,2013-08-25 10:12:00,
2013-08-25 03:22:00,57.0,35.0,-100.00,SW,235,0.0,4.0,44,0.00,,,0.00,0.000000,,2013-08-25 10:22:00,
2013-08-25 03:33:00,57.0,35.0,-100.00,SW,235,0.0,4.0,44,0.00,,,0.00,0.000000,,2013-08-25 10:33:00,
2013-08-25 03:42:00,57.0,35.0,-100.00,SW,235,0.0,4.0,44,0.00,,,0.00,0.000000,,2013-08-25 10:42:00,
2013-08-25 04:22:00,52.0,32.0,-100.00,SSW,211,0.0,4.0,47,0.00,,,0.00,0.000000,,2013-08-25 11:22:00,
2013-08-25 04:33:00,52.0,32.0,-100.00,SSW,211,0.0,4.0,47,0.00,,,0.00,0.000000,,2013-08-25 11:33:00,
2013-08-25 04:42:00,52.0,32.0,-100.00,SSW,211,0.0,4.0,47,0.00,,,0.00,0.000000,,2013-08-25 11:42:00,
2013-08-25 05:12:00,55.0,34.0,-100.00,SW,236,0.0,3.0,45,0.00,,,0.00,0.000000,,2013-08-25 12:12:00,
2013-08-25 05:22:00,55.0,34.0,-100.00,SW,236,0.0,3.0,45,0.00,,,0.00,0.000000,,2013-08-25 12:22:00,
2013-08-25 05:32:00,55.0,34.0,-100.00,SW,236,0.0,3.0,45,0.00,,,0.00,0.000000,,2013-08-25 12:32:00,
2013-08-25 05:42:00,55.0,34.0,-100.00,SW,236,0.0,3.0,45,0.00,,,0.00,0.000000,,2013-08-25 12:42:00,
2013-08-25 06:12:00,51.0,31.0,-100.00,SSE,164,0.0,5.0,47,0.00,,,0.00,0.000000,,2013-08-25 13:12:00,
2013-08-25 06:21:00,51.0,31.0,-100.00,SSE,164,0.0,5.0,47,0.00,,,0.00,0.000000,,2013-08-25 13:21:00,
2013-08-25 06:32:00,51.0,31.0,-100.00,SSE,164,0.0,5.0,47,0.00,,,0.00,0.000000,,2013-08-25 13:32:00,
2013-08-25 06:42:00,51.0,31.0,-100.00,SSE,164,0.0,5.0,47,0.00,,,0.00,0.000000,,2013-08-25 13:42:00,
2013-08-25 07:11:00,52.0,31.0,-100.00,WSW,237,1.0,6.0,45,0.00,,,0.00,6.000000,,2013-08-25 14:11:00,
2013-08-25 07:24:00,52.0,31.0,-100.00,WSW,237,1.0,6.0,45,0.00,,,0.00,6.000000,,2013-08-25 14:24:00,
2013-08-25 07:32:00,52.0,31.0,-100.00,WSW,237,1.0,6.0,45,0.00,,,0.00,6.000000,,2013-08-25 14:32:00,
2013-08-25 07:42:00,52.0,31.0,-100.00,WSW,237,1.0,6.0,45,0.00,,,0.00,6.000000,,2013-08-25 14:42:00,
2013-08-25 08:44:00,60.0,35.0,-100.00,SW,219,0.0,7.0,39,0.00,,,0.00,83.000000,,2013-08-25 15:44:00,
2013-08-25 09:44:00,66.0,36.0,-100.00,WSW,245,0.0,0.0,33,0.00,,,0.00,245.000000,,2013-08-25 16:44:00,
2013-08-25 11:12:00,76.0,38.0,-100.00,ENE,62,6.0,9.0,25,-99.99,,,0.00,694.000000,,2013-08-25 18:12:00,
2013-08-25 11:21:00,76.0,38.0,-100.00,ENE,62,6.0,9.0,25,-99.99,,,0.00,694.000000,,2013-08-25 18:21:00,
2013-08-25 11:32:00,76.0,38.0,-100.00,ENE,62,6.0,9.0,25,-99.99,,,0.00,694.000000,,2013-08-25 18:32:00,
2013-08-25 11:42:00,76.0,38.0,-100.00,ENE,62,6.0,9.0,25,-99.99,,,0.00,694.000000,,2013-08-25 18:42:00,
2013-08-25 12:11:00,80.0,38.0,-100.00,ENE,58,2.0,10.0,22,0.00,,,0.00,907.000000,,2013-08-25 19:11:00,
2013-08-25 12:22:00,80.0,38.0,-100.00,ENE,58,2.0,10.0,22,0.00,,,0.00,907.000000,,2013-08-25 19:22:00,
2013-08-25 12:32:00,80.0,38.0,-100.00,ENE,58,2.0,10.0,22,0.00,,,0.00,907.000000,,2013-08-25 19:32:00,
2013-08-25 12:42:00,80.0,38.0,-100.00,ENE,58,2.0,10.0,22,0.00,,,0.00,907.000000,,2013-08-25 19:42:00,
2013-08-25 13:12:00,84.0,40.0,-100.00,North,2,3.0,11.0,21,0.00,,,0.00,961.000000,,2013-08-25 20:12:00,
2013-08-25 13:23:00,84.0,40.0,-100.00,North,2,3.0,11.0,21,0.00,,,0.00,961.000000,,2013-08-25 20:23:00,
2013-08-25 13:33:00,84.0,40.0,-100.00,North,2,3.0,11.0,21,0.00,,,0.00,961.000000,,2013-08-25 20:33:00,
2013-08-25 13:43:00,84.0,40.0,-100.00,North,2,3.0,11.0,21,0.00,,,0.00,961.000000,,2013-08-25 20:43:00,
2013-08-25 14:12:00,83.0,38.0,-100.00,NNW,335,5.0,13.0,20,0.00,,,0.00,904.000000,,2013-08-25 21:12:00,
2013-08-25 14:22:00,83.0,38.0,-100.00,NNW,335,5.0,13.0,20,0.00,,,0.00,904.000000,,2013-08-25 21:22:00,
2013-08-25 14:34:00,83.0,38.0,-100.00,NNW,335,5.0,13.0,20,0.00,,,0.00,904.000000,,2013-08-25 21:34:00,
2013-08-25 14:43:00,83.0,38.0,-100.00,NNW,335,5.0,13.0,20,0.00,,,0.00,904.000000,,2013-08-25 21:43:00,
2013-08-25 15:14:00,86.0,38.0,-100.00,SW,229,11.0,20.0,18,0.00,,,0.00,931.000000,,2013-08-25 22:14:00,
2013-08-25 15:24:00,86.0,38.0,-100.00,SW,229,11.0,20.0,18,0.00,,,0.00,931.000000,,2013-08-25 22:24:00,
2013-08-25 15:34:00,86.0,38.0,-100.00,SW,229,11.0,20.0,18,0.00,,,0.00,931.000000,,2013-08-25 22:34:00,
2013-08-25 15:43:00,86.0,38.0,-100.00,SW,229,11.0,20.0,18,0.00,,,0.00,931.000000,,2013-08-25 22:43:00,
2013-08-25 16:12:00,84.0,37.0,-100.00,WNW,289,11.0,22.0,19,0.00,,,0.00,755.000000,,2013-08-25 23:12:00,
2013-08-25 16:23:00,84.0,37.0,-100.00,WNW,289,11.0,22.0,19,0.00,,,0.00,755.000000,,2013-08-25 23:23:00,
2013-08-25 16:33:00,84.0,37.0,-100.00,WNW,289,11.0,22.0,19,0.00,,,0.00,755.000000,,2013-08-25 23:33:00,
2013-08-25 16:42:00,84.0,37.0,-100.00,WNW,289,11.0,22.0,19,0.00,,,0.00,755.000000,,2013-08-25 23:42:00,
2013-08-25 17:11:00,82.0,38.0,-100.00,WSW,245,8.0,17.0,21,0.00,,,0.00,428.000000,,2013-08-26 00:11:00,
2013-08-25 17:22:00,82.0,38.0,-100.00,WSW,245,8.0,17.0,21,0.00,,,0.00,428.000000,,2013-08-26 00:22:00,
2013-08-25 17:32:00,82.0,38.0,-100.00,WSW,245,8.0,17.0,21,0.00,,,0.00,428.000000,,2013-08-26 00:32:00,
2013-08-25 17:42:00,82.0,38.0,-100.00,WSW,245,8.0,17.0,21,0.00,,,0.00,428.000000,,2013-08-26 00:42:00,
2013-08-25 18:11:00,81.0,41.0,-100.00,WSW,258,12.0,21.0,24,0.00,,,0.00,238.000000,,2013-08-26 01:11:00,
2013-08-25 18:22:00,81.0,41.0,-100.00,WSW,258,12.0,21.0,24,0.00,,,0.00,238.000000,,2013-08-26 01:22:00,
2013-08-25 18:32:00,81.0,41.0,-100.00,WSW,258,12.0,21.0,24,0.00,,,0.00,238.000000,,2013-08-26 01:32:00,
2013-08-25 18:42:00,81.0,41.0,-100.00,WSW,258,12.0,21.0,24,0.00,,,0.00,238.000000,,2013-08-26 01:42:00,
2013-08-25 19:11:00,77.0,38.0,-100.00,WSW,254,12.0,21.0,25,0.00,,,0.00,100.000000,,2013-08-26 02:11:00,
2013-08-25 19:21:00,77.0,38.0,-100.00,WSW,254,12.0,21.0,25,0.00,,,0.00,100.000000,,2013-08-26 02:21:00,
2013-08-25 19:32:00,77.0,38.0,-100.00,WSW,254,12.0,21.0,25,0.00,,,0.00,100.000000,,2013-08-26 02:32:00,
2013-08-25 19:42:00,77.0,38.0,-100.00,WSW,254,12.0,21.0,25,0.00,,,0.00,100.000000,,2013-08-26 02:42:00,
2013-08-25 20:11:00,76.0,40.0,-100.00,West,274,6.0,19.0,27,0.00,,,0.00,22.000000,,2013-08-26 03:11:00,
2013-08-25 20:22:00,76.0,40.0,-100.00,West,274,6.0,19.0,27,0.00,,,0.00,22.000000,,2013-08-26 03:22:00,
2013-08-25 20:34:00,76.0,40.0,-100.00,West,274,6.0,19.0,27,0.00,,,0.00,22.000000,,2013-08-26 03:34:00,
2013-08-25 20:44:00,76.0,40.0,-100.00,West,274,6.0,19.0,27,0.00,,,0.00,22.000000,,2013-08-26 03:44:00,
2013-08-25 21:14:00,71.0,40.0,-100.00,WSW,245,5.0,11.0,32,0.00,,,-99.99,0.000000,,2013-08-26 04:14:00,
2013-08-25 21:24:00,71.0,40.0,-100.00,WSW,245,5.0,11.0,32,0.00,,,-99.99,0.000000,,2013-08-26 04:24:00,
2013-08-25 21:34:00,71.0,40.0,-100.00,WSW,245,5.0,11.0,32,0.00,,,-99.99,0.000000,,2013-08-26 04:34:00,
2013-08-25 21:43:00,71.0,40.0,-100.00,WSW,245,5.0,11.0,32,0.00,,,-99.99,0.000000,,2013-08-26 04:43:00,
2013-08-25 22:13:00,69.0,40.0,-100.00,North,5,7.0,11.0,35,0.00,,,0.00,0.000000,,2013-08-26 05:13:00,
2013-08-25 22:22:00,69.0,40.0,-100.00,North,5,7.0,11.0,35,0.00,,,0.00,0.000000,,2013-08-26 05:22:00,
2013-08-25 22:33:00,69.0,40.0,-100.00,North,5,7.0,11.0,35,0.00,,,0.00,0.000000,,2013-08-26 05:33:00,
2013-08-25 22:43:00,69.0,40.0,-100.00,North,5,7.0,11.0,35,0.00,,,0.00,0.000000,,2013-08-26 05:43:00,
2013-08-25 23:12:00,66.0,39.0,-100.00,ESE,116,2.0,9.0,37,0.00,,,0.00,0.000000,,2013-08-26 06:12:00,
2013-08-25 23:21:00,66.0,39.0,-100.00,ESE,116,2.0,9.0,37,0.00,,,0.00,0.000000,,2013-08-26 06:21:00,
2013-08-25 23:32:00,66.0,39.0,-100.00,ESE,116,2.0,9.0,37,0.00,,,0.00,0.000000,,2013-08-26 06:32:00,
2013-08-25 23:42:00,66.0,39.0,-100.00,ESE,116,2.0,9.0,37,0.00,,,0.00,0.000000,,2013-08-26 06:42:00,